Kuchera_Ratio
0.0 0.0 0.0 0.0 0.0 0.0 0.0 0.0 0.0 0.0 0.0 0.0 0.0 0.0 0.0 0.0 0.0 0.0 0.0 0.0 0.0 0.0 0.0 0.0 0.0 0.0 0.0 0.0 0.0 0.0 0.0 0.0 0.0 0.0 0.0 0.0 0.0 0.0 0.0 0.0 0.0 0.0 0.0 0.0
0.0 0.0 0.0 0.0 0.0 0.0 0.0 0.0 0.0 0.0 0.0 0.0 0.0 0.0 0.0 0.0 0.0 0.0 0.0 0.0 0.0 0.0 0.0 0.0 0.0 0.0 0.0 0.0 0.0 0.0 0.0 0.0 0.0 0.0 0.0 0.0 0.0 0.0 0.0 0.0 0.0 0.0 0.0 0.0
5.5 0.0 0.0 3.5 0.0 0.0 0.0 0.0 0.0 0.0 0.0 0.0 0.0 0.0 0.0 0.0 0.0 0.0 0.0 0.0 0.0 0.0 0.0 0.0 0.0 0.0 0.0 0.0 0.0 0.0 0.0 0.0 0.0 0.0 0.0 0.0 0.0 0.0 0.0 0.0 0.0 0.0 0.0 0.0
6.7 1.9 14.6 0.0 0.0 0.0 0.0 0.0 0.0 0.0 0.0 0.0 0.0 0.0 0.0 0.0 0.0 0.0 0.0 0.0 0.0 0.0 0.0 0.0 0.0 0.0 0.0 0.0 0.0 0.0 0.0 0.0 0.0 0.0 0.0 0.0 0.0 0.0 0.0 0.0 0.0 0.0 0.0 0.0
10.7 8.7 0.0 0.0 0.0 0.0 0.0 0.0 0.0 0.0 0.0 0.0 0.0 0.0 0.0 0.0 0.0 0.0 0.0 0.0 0.0 0.0 0.0 0.0 0.0 0.0 0.0 0.0 0.0 0.0 0.0 0.0 0.0 0.0 0.0 0.0 0.0 0.0 0.0 0.0 0.0 0.0 0.0 0.0
8.7 12.9 13.2 0.0 0.0 0.0 0.0 3.7 0.0 0.0 0.0 0.0 0.0 0.0 0.0 0.0 0.0 0.0 0.0 0.0 0.0 0.0 0.0 0.0 0.0 0.0 0.0 0.0 0.0 0.0 0.0 0.0 0.0 0.0 0.0 0.0 0.0 0.0 0.0 0.0 0.0 0.0 0.0 0.0
7.7 9.5 0.5 0.0 0.0 0.0 7.3 0.7 0.0 0.0 0.0 0.0 0.0 0.0 0.0 0.0 0.0 0.0 0.0 0.0 0.0 0.0 0.0 0.0 0.0 0.0 0.0 0.0 0.0 0.0 0.0 0.0 0.0 0.0 0.0 0.0 0.0 0.0 0.0 0.0 0.0 0.0 0.0 0.0
6.1 12.2 13.3 0.0 0.0 0.0 0.0 0.0 0.0 0.0 0.0 0.0 0.0 0.0 0.0 0.0 0.0 0.0 0.0 0.0 0.0 0.0 0.0 0.0 0.0 0.0 0.0 0.0 0.0 0.0 0.0 0.0 0.0 0.0 0.0 0.0 0.0 0.0 0.0 0.0 0.0 0.2 0.3 0.9
0.0 0.1 0.0 0.0 0.0 0.0 0.0 0.0 0.0 0.0 0.0 0.0 0.0 0.0 0.0 0.0 0.0 0.0 0.0 0.0 0.0 0.0 0.0 0.0 0.0 0.0 0.0 0.0 0.0 0.0 0.0 0.0 0.0 0.0 0.0 0.0 0.0 1.1 1.7 1.7 1.1 2.3 1.7 0.9
0.0 0.0 0.0 0.0 0.0 0.0 0.0 0.0 0.0 0.0 0.0 0.0 0.0 0.0 0.0 0.0 0.0 0.0 0.0 0.0 0.0 0.0 0.0 0.0 0.0 0.0 0.0 0.0 0.0 0.0 0.7 2.1 0.9 2.1 2.7 2.7 1.7 2.5 3.3 4.9 5.5 5.3 4.9 4.9
0.0 0.0 0.0 0.0 0.0 0.0 0.0 0.0 0.0 0.0 0.0 0.0 0.0 0.0 0.0 0.0 0.0 0.0 0.0 0.0 0.0 0.0 0.0 0.0 0.0 0.1 0.9 0.1 0.3 2.1 2.5 3.0 1.6 2.6 4.4 4.4 4.5 4.5 4.9 5.1 4.9 5.8 4.9 3.8
1.3 0.0 0.0 0.0 0.0 0.0 0.0 0.0 0.0 0.0 0.0 0.0 0.0 0.0 0.0 0.0 0.0 0.0 0.0 0.0 0.0 0.0 0.0 0.0 1.7 2.7 2.5 0.7 0.0 2.5 5.0 4.6 2.3 3.1 4.5 5.8 5.3 5.3 4.5 5.7 6.5 6.5 6.3 6.7
0.0 0.0 0.0 0.0 0.0 0.0 0.0 0.0 0.0 0.0 0.0 0.0 0.0 0.0 0.0 0.0 0.0 0.0 0.0 0.0 2.3 3.3 2.5 2.1 2.3 3.3 2.3 3.1 3.7 4.5 5.3 4.5 2.9 4.5 4.9 5.5 5.8 6.3 7.3 5.5 6.3 6.7 6.9 6.1
0.0 0.0 0.0 0.0 0.0 0.0 0.0 0.0 0.0 0.0 0.0 0.0 0.0 0.0 0.0 0.0 0.0 5.9 6.5 3.9 4.1 4.7 4.7 5.3 5.9 6.1 4.9 4.5 6.1 6.3 6.1 6.5 5.1 5.1 5.5 5.9 6.3 6.8 6.7 7.7 7.5 6.3 6.9 6.9
0.0 0.0 0.0 0.0 0.0 0.0 0.0 0.0 0.0 0.0 0.0 0.0 0.0 0.0 0.0 0.0 1.7 4.7 5.9 6.7 7.1 7.1 6.2 6.7 6.9 6.3 5.5 5.9 6.7 6.9 6.9 6.5 6.3 6.3 5.7 6.1 5.7 5.9 6.7 6.9 7.3 7.3 6.3 7.5
0.0 0.0 0.0 0.0 0.0 0.0 0.0 0.0 0.0 0.0 0.0 0.0 0.0 0.0 0.0 0.0 0.0 0.0 5.5 7.1 9.1 8.7 7.1 7.1 7.1 6.7 6.1 6.7 7.1 5.7 5.1 6.5 7.5 5.9 4.9 6.3 5.3 5.5 5.9 7.3 7.1 7.3 7.3 7.7
0.0 0.0 0.0 0.0 0.0 0.0 0.0 0.0 0.0 0.0 0.0 0.0 0.0 0.0 0.0 0.0 1.7 6.9 7.7 7.3 7.7 7.9 7.1 6.3 7.5 5.9 6.3 6.5 5.7 3.7 3.9 4.1 5.9 3.9 4.9 5.3 5.7 5.3 4.9 5.7 6.5 6.9 7.5 7.3
0.0 0.0 0.0 0.0 0.0 0.0 0.0 0.0 0.0 0.0 0.0 0.0 0.0 6.5 9.3 10.1 9.3 8.9 8.1 7.9 8.1 7.3 6.1 6.3 5.9 5.9 4.9 4.1 3.7 4.3 4.3 5.5 5.1 3.9 4.1 5.5 6.1 5.7 4.5 4.7 5.9 6.7 7.7 8.1
0.0 0.0 0.0 0.0 0.0 0.0 0.0 0.0 0.0 0.0 0.0 1.9 6.1 8.9 8.1 8.1 8.5 8.3 8.1 9.7 9.5 5.7 3.9 3.3 5.5 3.1 0.0 2.5 4.9 3.5 3.7 5.5 5.5 4.1 4.1 6.1 6.5 6.7 6.1 5.7 5.7 6.7 7.3 7.9
0.0 0.0 0.0 0.0 0.0 0.0 0.0 0.0 0.0 0.0 0.0 3.7 7.5 8.7 9.3 8.5 7.9 8.5 8.9 10.1 6.1 0.5 0.1 1.1 2.7 0.1 0.0 0.9 5.5 4.5 4.1 6.5 6.7 5.1 5.5 5.7 6.5 7.3 7.3 6.5 6.1 7.3 7.9 7.7
0.0 0.0 0.0 0.0 0.0 0.0 0.0 1.4 2.8 4.3 5.3 6.3 7.9 8.5 8.1 7.1 7.7 8.7 10.7 4.9 0.0 0.0 1.7 3.9 1.5 0.3 0.0 3.1 5.3 4.7 5.7 7.1 7.5 6.7 6.3 6.5 7.3 7.1 7.5 7.3 7.5 7.9 8.1 7.7
0.0 1.2 0.8 0.7 1.7 1.8 2.0 3.6 0.9 5.1 6.5 7.1 7.5 8.1 8.3 8.5 8.7 8.5 7.5 5.9 0.3 5.3 2.7 2.3 1.7 4.3 5.5 8.5 4.7 6.7 6.1 6.3 6.7 6.5 6.9 6.7 7.5 7.9 7.9 7.7 8.3 8.1 7.9 7.9
4.4 5.7 5.6 6.4 6.3 4.9 4.7 5.1 5.9 6.1 6.5 6.7 7.3 7.9 8.3 5.5 2.3 3.9 6.5 0.0 0.0 3.3 4.9 4.5 6.5 8.9 9.1 8.7 8.1 7.9 7.5 7.7 7.9 7.5 7.1 7.1 7.1 7.5 7.5 7.9 7.7 8.3 8.5 8.5
4.1 4.9 6.3 5.5 6.1 6.7 7.9 5.5 5.3 5.7 6.9 7.3 7.5 7.7 7.7 8.1 7.7 3.9 3.3 4.9 7.1 7.9 9.7 8.5 8.7 9.5 9.5 9.1 8.5 8.3 7.9 7.7 7.7 7.7 6.7 7.5 7.3 7.5 7.5 7.7 7.9 8.3 8.5 8.3
6.9 6.5 4.7 6.7 6.9 3.9 5.1 4.5 5.1 6.3 6.5 5.9 6.9 6.9 8.7 7.3 9.9 7.9 7.3 7.7 9.3 9.1 9.3 9.3 9.5 9.7 9.3 9.3 9.3 8.9 8.7 7.9 7.5 7.9 7.5 7.3 7.3 7.7 7.5 7.3 7.9 8.5 8.7 8.1
2.9 1.7 1.5 3.7 6.1 6.3 7.3 7.7 9.1 8.5 8.5 9.9 9.9 9.7 9.9 8.9 8.9 8.9 8.5 9.3 9.9 9.7 9.7 9.3 9.7 9.7 9.7 9.7 9.3 9.7 9.1 8.3 7.5 7.3 7.7 7.3 7.1 7.1 7.5 7.5 7.9 8.5 8.5 8.1
0.5 5.5 2.9 3.7 4.3 7.5 10.1 11.3 12.5 12.6 11.5 12.2 12.5 10.3 9.5 9.9 10.1 10.3 10.7 10.7 10.5 10.5 10.3 10.1 9.9 9.9 9.7 10.1 9.9 9.5 8.9 8.3 7.7 7.3 8.1 7.5 7.3 7.3 7.5 7.7 7.9 8.1 8.3 8.3